Date,Time,Air Temperature,Dewpoint,Windchill,Heat Index,RH,3m Max Wind Speed,3m Mean Wind Speed,3m Wind Direction,Rain,Solar Radiation
,,F,F,F,F,%,MPH,MPH,deg,in,MJ/m^2
2024-04-14,01:00,38.2,15.7,38.2,38.2,39.4,4.6,1.7,254.6,0.0,-0.00112787
2024-04-14,01:05,38.2,15.4,38.2,38.2,39.0,6.7,2.8,268.7,0.0,-0.00126799
2024-04-14,01:10,38.1,15.7,38.1,38.1,39.6,7.8,3.1,259.5,0.0,-0.00119797
2024-04-14,01:15,37.7,15.5,37.7,37.7,39.9,6.5,2.9,236.3,0.0,-0.0012857
2024-04-14,01:20,38,15.6,38.0,38,39.7,8.1,4.5,247,0.0,-0.00115536
2024-04-14,01:25,36.9,15.2,36.9,36.9,40.7,5.5,2.5,256,0.0,-0.00140523
2024-04-14,01:30,37.1,15.5,37.1,37.1,41,4,1.5,234.6,0.0,-0.00125508
2024-04-14,01:35,37.3,15,37.3,37.3,39.7,8,2.2,230.6,0.0,-0.00107336
2024-04-14,01:40,37.7,15.3,37.7,37.7,39.5,8.1,2.8,234.4,0.0,-0.00110564
2024-04-14,01:45,37.3,15.3,37.3,37.3,40.3,6.7,2.6,251.5,0.0,-0.0013072
2024-04-14,01:50,36.9,15.5,36.9,36.9,41.2,5.3,2.2,249.3,0.0,-0.00130603
2024-04-14,01:55,36.6,15.3,36.6,36.6,41.4,5.3,2,257.9,0.0,-0.00128355
2024-04-14,02:00,36.9,15.3,36.9,36.9,41.0,6.3,1.6,271,0.0,-0.00127277
2024-04-14,02:05,36.1,15.3,36.1,36.1,42.1,4.2,0.8,228,0.0,-0.00132443
2024-04-14,02:10,35.8,14.9,35.8,35.8,42,3.5,1,255.1,0.0,-0.00124719
2024-04-14,02:15,36.1,15.4,36.1,36.1,42.4,4,1.1,282.7,0.0,-0.001246
2024-04-14,02:20,36,14.9,36.0,36,41.6,0.8,0,281.3,0.0,-0.00135385
2024-04-14,02:25,35.8,15.4,35.8,35.8,42.8,1,0.1,226.4,0.0,-0.00120276
2024-04-14,02:30,35.8,14.9,35.8,35.8,42.0,3.8,0.4,268.2,0.0,-0.00117332
2024-04-14,02:35,35.6,14.9,35.6,35.6,42.3,0,0,0,0.0,-0.00127087
2024-04-14,02:40,35.5,15.2,35.5,35.5,43.1,1.5,0.1,261.8,0.0,-0.00120201
2024-04-14,02:45,35.7,14.6,35.7,35.7,41.6,3.8,0.9,235,0.0,-0.00111256
2024-04-14,02:50,35.8,14.8,35.8,35.8,41.8,0,0,0,0.0,-0.00125867
2024-04-14,02:55,35.5,14.4,35.5,35.5,41.5,6,1.7,244.6,0.0,-0.0011023
2024-04-14,03:00,36.8,14.3,36.8,36.8,39.3,5.6,3.2,299.1,0.0,-0.0009793799
2024-04-14,03:05,36.6,14.6,36.6,36.6,40.1,2.4,0.2,300.3,0.0,-0.00128308
2024-04-14,03:10,35.9,14.4,35.9,35.9,40.9,3.3,0.7,221.1,0.0,-0.00123594
2024-04-14,03:15,36.1,14.3,36.1,36.1,40.4,6.3,1.5,254.2,0.0,-0.00111738
2024-04-14,03:20,36.7,14.6,36.7,36.7,40.0,4.2,0.8,288.9,0.0,-0.00121658
2024-04-14,03:25,35.9,14,35.9,35.9,40.1,6,1.7,252.4,0.0,-0.00146646
2024-04-14,03:30,36.3,14.4,36.3,36.3,40.3,6.7,3.3,242.7,0.0,-0.00109153
2024-04-14,03:35,35.5,15.1,35.5,35.5,42.9,3,0.5,267.4,0.0,-0.00143823
2024-04-14,03:40,35.9,14.1,35.9,35.9,40.3,0.8,0.1,285.4,0.0,-0.00119961
2024-04-14,03:45,34.7,14.9,34.7,34.7,43.8,4.7,2,195.4,0.0,-0.00119293
2024-04-14,03:50,33.9,14.8,33.9,33.9,44.9,5.5,1.2,226.4,0.0,-0.00137965
2024-04-14,03:55,33.7,14.7,33.7,33.7,45.3,5.5,1.7,244.2,0.0,-0.0012857
2024-04-14,04:00,33.4,15,33.4,33.4,46.3,3.3,0.8,209,0.0,-0.00122281
2024-04-14,04:05,33.5,14.2,33.5,33.5,44.7,4,1.2,233.1,0.0,-0.00118338
2024-04-14,04:10,34,15,34.0,34,45.4,5.8,1.7,249.6,0.0,-0.00104155
2024-04-14,04:15,33,14.6,33.0,33,46.2,4,0.7,226,0.0,-0.00135745
2024-04-14,04:20,33,14.6,33.0,33,46.5,3.1,0.3,203.1,0.0,-0.00127017
2024-04-14,04:25,33.3,14.6,33.3,33.3,45.9,0.8,0,264.7,0.0,-0.00114292
2024-04-14,04:30,33.6,14.3,33.6,33.6,44.7,4,1.4,246.1,0.0,-0.00112263
2024-04-14,04:35,33.9,14.5,33.9,33.9,44.6,2.6,0.3,271.1,0.0,-0.00122185
2024-04-14,04:40,32.7,15,32.7,32.7,47.7,3.5,0.4,185.1,0.0,-0.00118288
2024-04-14,04:45,31.2,15.1,31.2,31.2,50.7,1.3,0.1,211.9,0.0,-0.00135862
2024-04-14,04:50,31.4,14.8,31.4,31.4,49.9,1.9,0.1,228.7,0.0,-0.00115442
2024-04-14,04:55,32.6,14.6,32.6,32.6,47.2,5.5,0.9,307.8,0.0,-0.00093705
2024-04-14,05:00,32.5,14.5,32.5,32.5,47.1,0,0,0,0.0,-0.00124934
2024-04-14,05:05,33.2,14.2,33.2,33.2,45.2,3,0.7,284.7,0.0,-0.0009153099
2024-04-14,05:10,34,14.3,34.0,34,43.9,3.7,1,296.9,0.0,-0.0008878299
2024-04-14,05:15,32.6,15.2,32.6,32.6,48.3,0,0,0,0.0,-0.00152817
2024-04-14,05:20,31.1,14.8,31.1,31.1,50.3,0,0,0,0.0,-0.00144306
2024-04-14,05:25,30.8,14,30.8,30.8,49.4,0.8,0,218.9,0.0,-0.00125149
2024-04-14,05:30,31.6,14,31.6,31.6,47.6,1.3,0,226.4,0.0,-0.0009277199
2024-04-14,05:35,30.9,14.9,30.9,30.9,50.9,1.7,0.4,204.5,0.0,-0.00100187
2024-04-14,05:40,31.4,14.4,31.4,31.4,49.0,2.4,0.6,207.1,0.0,-0.0008505299
2024-04-14,05:45,32.3,13.9,32.3,32.3,46.1,5.3,1.1,241.1,0.0,-0.00086273
2024-04-14,05:50,33.6,13.7,33.6,33.6,43.5,6.5,2.1,249.9,0.0,-0.0007027599
2024-04-14,05:55,34.5,13.4,34.5,34.5,41.3,3.8,1.1,279.7,0.0,-0.0008754
2024-04-14,06:00,33.2,15.1,33.2,33.2,47,3.7,0.6,262.5,0.0,-0.00130912
2024-04-14,06:05,34.3,13.1,34.3,34.3,41.2,4.4,1,248.6,0.0,-0.00104038
2024-04-14,06:10,35.9,12.5,35.9,35.9,37.7,6.7,3.1,246.9,0.0,-0.00073719
2024-04-14,06:15,36.3,12.4,36.3,36.3,36.9,6.2,2.7,237.7,0.0,-0.00074818
2024-04-14,06:20,36.8,12.5,36.8,36.8,36.2,5.1,1.8,238.3,0.0,-0.0006442
2024-04-14,06:25,37.6,12.4,37.6,37.6,35.1,8.7,3.2,246,0.0,-0.00023744
2024-04-14,06:30,37.4,11.7,37.4,37.4,34.2,6.7,2.7,243,0.0,0.00023792
2024-04-14,06:35,38.2,11.9,38.2,38.2,33.3,7.6,2.5,246.7,0.0,0.00103508
2024-04-14,06:40,38,12.7,38.0,38,35.0,6,1.5,229.2,0.0,0.00163408
2024-04-14,06:45,36.7,12.8,36.7,36.7,37.1,5.3,1.8,219.9,0.0,0.00222804
2024-04-14,06:50,37,12.5,37.0,37,35.9,6.7,3.5,226.6,0.0,0.00800706
2024-04-14,06:55,38.3,11,38.3,38.3,32.0,5.3,1.6,228.5,0.0,0.01825152
2024-04-14,07:00,41.4,11.4,41.4,41.4,28.9,8.3,4.2,243.2,0.0,0.02435238
2024-04-14,07:05,42.7,11.4,42.7,42.7,27.5,7.4,3.7,239.2,0.0,0.02896198
2024-04-14,07:10,43.6,10.7,43.6,43.6,25.7,8.1,3.9,253.9,0.0,0.03318083
2024-04-14,07:15,44.6,11.4,44.6,44.6,25.5,6,3.4,239.5,0.0,0.037716
2024-04-14,07:20,46,11,46.0,46,23.9,5.8,3.1,247.9,0.0,0.04218329
2024-04-14,07:25,47.5,11.8,47.5,47.5,23.3,4.9,1.2,252.9,0.0,0.04689688
2024-04-14,07:30,48.3,10.6,48.3,48.3,21.5,6.9,3.3,249.6,0.0,0.05161549
2024-04-14,07:35,49.3,11.3,49.3,49.3,21.3,5.3,2.1,259.9,0.0,0.05631232
2024-04-14,07:40,50.6,11.8,50.6,50.6,20.8,4.9,1,244.2,0.0,0.06116432
2024-04-14,07:45,52.5,9.9,52.5,52.5,17.8,3.1,0.8,282.1,0.0,0.06614953
2024-04-14,07:50,53.8,9.9,53.8,53.8,17.0,7.2,1.6,301.8,0.0,0.07091238
2024-04-14,07:55,54.9,10.7,54.9,54.9,16.9,6.9,1.4,314.9,0.0,0.07601473
2024-04-14,08:00,55.3,10.9,55.3,55.3,16.8,4.9,0.7,309.5,0.0,0.08098868
2024-04-14,08:05,55.6,10.4,55.6,55.6,16.3,4.9,0.7,308,0.0,0.08615659
2024-04-14,08:10,56.1,8.7,56.1,56.1,14.8,6.9,1.6,12.5,0.0,0.09134335
2024-04-14,08:15,57.1,9.5,57.1,57.1,14.8,1.5,0.1,157.2,0.0,0.09691557
2024-04-14,08:20,57.7,11.9,57.7,57.7,16.1,2.1,0.1,311.7,0.0,0.1020875
2024-04-14,08:25,57.8,10.2,57.8,57.8,14.9,5.6,0.7,326.5,0.0,0.1075442
2024-04-14,08:30,58.1,11,58.1,58.1,15.2,3,0.2,311.6,0.0,0.1133285
2024-04-14,08:35,58.4,12.3,58.4,58.4,15.9,3.7,0.2,284.9,0.0,0.1188926
2024-04-14,08:40,58.5,11,58.5,58.5,15.1,6.5,1.5,313.7,0.0,0.1246354
2024-04-14,08:45,59.2,12.6,59.2,59.2,15.7,3.3,0.8,322.4,0.0,0.1305875
2024-04-14,08:50,59.5,10.7,59.5,59.5,14.3,4.7,0.8,305.7,0.0,0.1367666
2024-04-14,08:55,60.1,9.9,60.1,60.1,13.5,5.1,0.9,323.7,0.0,0.1372969
2024-04-14,09:00,60.5,11.7,60.5,60.5,14.4,3.8,0.5,319.3,0.0,0.1474373
2024-04-14,09:05,61,10.2,61.0,61,13.3,4.2,0.8,17.2,0.0,0.1543276
2024-04-14,09:10,61.2,8.9,61.2,61.2,12.4,0.8,0,25.9,0.0,0.1474967
2024-04-14,09:15,61.5,8.8,61.5,61.5,12.2,2.8,0.3,331.9,0.0,0.1592797
2024-04-14,09:20,61.4,8.5,61.4,61.4,12.1,4.9,1,40.2,0.0,0.1614153
2024-04-14,09:25,61.7,11.7,61.7,61.7,13.8,3.5,0.2,28.3,0.0,0.158118
2024-04-14,09:30,60.8,9.7,60.8,60.8,13.0,1.9,0.2,297.4,0.0,0.1574011
2024-04-14,09:35,61.2,9.3,61.2,61.2,12.7,2.2,0.1,347.1,0.0,0.1542824
2024-04-14,09:40,61.7,9.8,61.7,61.7,12.7,1.3,0.1,51.3,0.0,0.1528649
2024-04-14,09:45,61.5,10.3,61.5,61.5,13.1,3.1,0.3,306.5,0.0,0.1473398
2024-04-14,09:50,61.4,10.1,61.4,61.4,13.0,2.1,0.1,272.1,0.0,0.1461108
2024-04-14,09:55,61.9,9.9,61.9,61.9,12.7,11.7,2.1,69.8,0.0,0.1723337
2024-04-14,10:00,63.1,10.4,63.1,63.1,12.4,4.9,1.2,43.6,0.0,0.2097843
2024-04-14,10:05,62.4,9.9,62.4,62.4,12.5,4.9,0.6,56.7,0.0,0.2064421
2024-04-14,10:10,62.8,13.3,62.8,62.8,14.3,6,1.2,72.7,0.0,0.2182631
2024-04-14,10:15,63.3,12.4,63.3,63.3,13.5,4.7,0.9,66.5,0.0,0.2295367
2024-04-14,10:20,62.7,9.4,62.7,62.7,12.1,6,0.9,37.3,0.0,0.2256306
2024-04-14,10:25,62.8,13.5,62.8,62.8,14.4,3.7,1.2,75.5,0.0,0.229157
2024-04-14,10:30,63.2,9.6,63.2,63.2,11.9,4.4,1.5,116.4,0.0,0.2321564
2024-04-14,10:35,64.2,9,64.2,64.2,11.2,0.8,0.1,70.6,0.0,0.2548363
2024-04-14,10:40,63.7,8.9,63.7,63.7,11.4,3.3,0.4,65.7,0.0,0.225166
2024-04-14,10:45,63.9,9.3,63.9,63.9,11.5,1.2,0.1,56.2,0.0,0.2261808
2024-04-14,10:50,64.2,8,64.2,64.2,10.7,1.5,0.1,348.5,0.0,0.2183352
2024-04-14,10:55,64.4,14.4,64.4,64.4,14.2,2.4,0.1,331.2,0.0,0.2073019
2024-04-14,11:00,64.9,10,64.9,64.9,11.5,1,0.1,63.5,0.0,0.1908337
2024-04-14,11:05,64.5,8.3,64.5,64.5,10.8,0,0,0,0.0,0.1967643
2024-04-14,11:10,64.1,10.9,64.1,64.1,12.2,3.8,0.7,120.8,0.0,0.1925648
2024-04-14,11:15,64.3,8.2,64.3,64.3,10.8,3.3,0.3,129.2,0.0,0.2000693
2024-04-14,11:20,63.8,6.7,63.8,63.8,10.3,2.4,0.2,67.5,0.0,0.1926091
2024-04-14,11:25,64.7,9.4,64.7,64.7,11.3,0.8,0,38.2,0.0,0.2055688
2024-04-14,11:30,64.7,10,64.7,64.7,11.6,5.1,0.7,47.4,0.0,0.1848609
2024-04-14,11:35,65,7.6,65.0,65,10.2,5.1,1.9,98.3,0.0,0.2050848
2024-04-14,11:40,65.6,8.1,65.6,65.6,10.3,0.8,0.1,89.6,0.0,0.2142012
2024-04-14,11:45,65,9.1,65.0,65,10.9,5.5,0.6,50.9,0.0,0.2535823
2024-04-14,11:50,65.8,10.4,65.8,65.8,11.3,2.6,0.2,116.9,0.0,0.2338144
2024-04-14,11:55,64.8,10.6,64.8,64.8,11.8,1.5,0.1,120.5,0.0,0.1775561
2024-04-14,12:00,64.3,13.3,64.3,64.3,13.5,4,0.6,127.8,0.0,0.1905592
2024-04-14,12:05,65.1,10.6,65.1,65.1,11.7,3.7,0.6,88.1,0.0,0.183823
2024-04-14,12:10,64.8,5.8,64.8,64.8,9.6,2.8,0.4,88.1,0.0,0.1762431
2024-04-14,12:15,64.8,7.5,64.8,64.8,10.3,0,0,0,0.0,0.2026111
2024-04-14,12:20,64.8,7.8,64.8,64.8,10.4,7.8,1.3,50.7,0.0,0.1804453
2024-04-14,12:25,64.6,6.8,64.6,64.6,10.0,3.3,0.2,27.1,0.0,0.181
2024-04-14,12:30,65.3,8.9,65.3,65.3,10.8,0.8,0.1,20.0,0.0,0.2263639
2024-04-14,12:35,66.9,10.8,66.9,66.9,11.1,2.4,0.5,86.8,0.0,0.2718018
2024-04-14,12:40,65.8,12.1,65.8,65.8,12.2,4,0.8,56.7,0.0,0.1717414
2024-04-14,12:45,66.7,11.6,66.7,66.7,11.6,0,0,0,0.0,0.2043754
2024-04-14,12:50,66.5,9.2,66.5,66.5,10.5,4.6,0.8,82.9,0.0,0.2216026
2024-04-14,12:55,66.7,12.1,66.7,66.7,11.9,0,0,0,0.0,0.2687342
2024-04-14,13:00,66.4,8.9,66.4,66.4,10.3,3.3,0.4,104.9,0.0,0.318193
2024-04-14,13:05,67,6.6,67.0,67,9.1,0,0,0,0.0,0.2364071
2024-04-14,13:10,66.5,8.7,66.5,66.5,10.3,4.7,0.5,92.1,0.0,0.2316373
2024-04-14,13:15,66.8,12.5,66.8,66.8,12,1.5,0.1,232.6,0.0,0.2828458
2024-04-14,13:20,66.6,9.8,66.6,66.6,10.7,2.8,0.4,256.3,0.0,0.2686051
2024-04-14,13:25,67.1,8.3,67.1,67.1,9.9,4.6,0.8,172.8,0.0,0.2911888
2024-04-14,13:30,67,6.4,67.0,67,9.1,2.4,0.4,298.3,0.0,0.2755059
2024-04-14,13:35,67.2,6.9,67.2,67.2,9.2,6.5,0.6,357.1,0.0,0.2688411
2024-04-14,13:40,67,9.8,67.0,67,10.6,1,0.1,64.4,0.0,0.1943782
2024-04-14,13:45,67.1,7.5,67.1,67.1,9.5,5.3,0.9,57.5,0.0,0.2017818
2024-04-14,13:50,67.7,8.8,67.7,67.7,9.9,5.3,0.7,41.1,0.0,0.261862
2024-04-14,13:55,68.5,10.1,68.5,68.5,10.2,3.5,0.7,79.3,0.0,0.2133346
2024-04-14,14:00,68,11.3,68.0,68,10.9,2.6,0.4,130.1,0.0,0.2431715
2024-04-14,14:05,69,13.4,69.0,69,11.6,5.6,1.1,103.5,0.0,0.2881493
2024-04-14,14:10,69.6,7.6,69.6,69.6,8.8,1,0,51.6,0.0,0.2464652
2024-04-14,14:15,68.8,9.3,68.8,68.8,9.7,0.8,0,45.0,0.0,0.2510497
2024-04-14,14:20,69.3,9.4,69.3,69.3,9.6,5.5,1.1,95.6,0.0,0.236085
2024-04-14,14:25,68.5,7.4,68.5,68.5,9.0,7.4,2.1,73.3,0.0,0.1677639
2024-04-14,14:30,68.6,13.5,68.6,68.6,11.8,1,0.1,161.8,0.0,0.2422316
2024-04-14,14:35,70.4,10.9,70.4,70.4,9.9,6.9,1.9,95.7,0.0,0.2840272
2024-04-14,14:40,69.5,6.2,69.5,69.5,8.3,3.5,0.7,120.4,0.0,0.2732475
2024-04-14,14:45,69.2,7.1,69.2,69.2,8.7,0,0,0,0.0,0.2146945
2024-04-14,14:50,69.3,11.2,69.3,69.3,10.4,8,1,76.8,0.0,0.2050335
2024-04-14,14:55,70.7,7.8,70.7,70.7,8.5,6.5,2.5,102.3,0.0,0.2361522
2024-04-14,15:00,70.1,7.1,70.1,70.1,8.4,5.5,1.4,114.2,0.0,0.2491105
2024-04-14,15:05,70.1,10.6,70.1,70.1,9.9,5.8,0.8,170.4,0.0,0.2513488
2024-04-14,15:10,69.6,10.7,69.6,69.6,10.0,4.2,0.2,194.6,0.0,0.2019019
2024-04-14,15:15,70.2,13.4,70.2,70.2,11.1,0,0,0,0.0,0.2374362
2024-04-14,15:20,70.3,7.3,70.3,70.3,8.4,7.1,0.5,56,0.0,0.2370294
2024-04-14,15:25,70.6,5.6,70.6,70.6,7.7,6,0.6,54.9,0.0,0.2392817
2024-04-14,15:30,71,9.2,71.0,71,9.0,3.7,0.8,74.7,0.0,0.2353225
2024-04-14,15:35,71.9,11.3,71.9,71.9,9.5,5.8,0.6,67.7,0.0,0.2307499
2024-04-14,15:40,70.7,7.8,70.7,70.7,8.5,1.2,0.1,68.6,0.0,0.2256875
2024-04-14,15:45,72.3,10,72.3,72.3,8.9,1,0.1,66.7,0.0,0.2217752
2024-04-14,15:50,71.2,9.4,71.2,71.2,9,4.4,0.7,60.5,0.0,0.2182101
2024-04-14,15:55,71,6.3,71.0,71,7.9,0.8,0,165.5,0.0,0.2134638
2024-04-14,16:00,71.1,8.6,71.1,71.1,8.7,4.4,0.7,298,0.0,0.2090725
2024-04-14,16:05,71.7,6.2,71.7,71.7,7.6,4,0.4,14.7,0.0,0.2049983
2024-04-14,16:10,72,10.8,72.0,72,9.3,1,0,35.7,0.0,0.200201
2024-04-14,16:15,71.4,7.9,71.4,71.4,8.4,4.4,0.7,72.6,0.0,0.1942842
2024-04-14,16:20,71.7,12,71.7,71.7,10.0,3.8,0.5,300.3,0.0,0.1903617
2024-04-14,16:25,71.7,8.2,71.7,71.7,8.4,3,0.3,47.3,0.0,0.1855171
2024-04-14,16:30,71.3,5.9,71.3,71.3,7.6,6,1.8,62.5,0.0,0.1811634
2024-04-14,16:35,71,10.7,71.0,71,9.6,3.8,0.8,54.4,0.0,0.1768018
2024-04-14,16:40,71.4,8.8,71.4,71.4,8.7,4.6,1.3,94.4,0.0,0.1711559
2024-04-14,16:45,71.7,6.6,71.7,71.7,7.8,5.3,0.4,124.9,0.0,0.1660112
2024-04-14,16:50,71.7,6.9,71.7,71.7,7.9,2.2,0.3,106.7,0.0,0.1612357
2024-04-14,16:55,71.8,9.2,71.8,71.8,8.7,4.7,0.4,158.7,0.0,0.1567148
2024-04-14,17:00,71.8,8,71.8,71.8,8.3,4.4,0.7,103.8,0.0,0.1524467
2024-04-14,17:05,72.2,10.9,72.2,72.2,9.3,0.8,0.1,147.1,0.0,0.1479531
2024-04-14,17:10,71.8,6.3,71.8,71.8,7.6,4.2,0.4,255,0.0,0.143151
2024-04-14,17:15,71.9,6.8,71.9,71.9,7.8,10.6,1.4,212.3,0.0,0.1387025
2024-04-14,17:20,71.5,-11.6,71.5,71.5,3.3,9,3.6,254.2,0.0,0.1347428
2024-04-14,17:25,70.9,-14.2,70.9,70.9,3.0,11.7,4.2,234.8,0.0,0.1300928
2024-04-14,17:30,70.3,-6.9,70.3,70.3,4.3,10.1,4.7,235,0.0,0.1240759
2024-04-14,17:35,70.2,-5.7,70.2,70.2,4.6,7.2,2.9,239.8,0.0,0.1182552
2024-04-14,17:40,69.7,-9.4,69.7,69.7,3.9,11.2,3.9,226.8,0.0,0.1126201
2024-04-14,17:45,69.6,-7.6,69.6,69.6,4.3,9,2.9,247.6,0.0,0.1067875
2024-04-14,17:50,69.6,-11.9,69.6,69.6,3.5,6.7,2,211.5,0.0,0.1010936
2024-04-14,17:55,69.2,-8,69.2,69.2,4.3,7.1,1.7,213.9,0.0,0.09520114
2024-04-14,18:00,69.2,-3.8,69.2,69.2,5.2,5.8,1.1,214.6,0.0,0.08979274
2024-04-14,18:05,68.9,0.3,68.9,68.9,6.4,5.3,1.3,216.1,0.0,0.08437569
2024-04-14,18:10,68.5,2,68.5,68.5,7.0,4.6,0.9,198.7,0.0,0.07885607
2024-04-14,18:15,68.2,-0.9,68.2,68.2,6.2,8,2.1,215,0.0,0.07349619
2024-04-14,18:20,68.1,-1.5,68.1,68.1,6.0,4.4,0.7,233.6,0.0,0.06820589
2024-04-14,18:25,68.3,3.4,68.3,68.3,7.6,6.2,1.4,217.1,0.0,0.06341363
2024-04-14,18:30,67.9,1,67.9,67.9,6.9,3.3,0.5,257.4,0.0,0.05819866
2024-04-14,18:35,67.6,3.5,67.6,67.6,7.8,2.2,0.2,216.3,0.0,0.05292103
2024-04-14,18:40,66.3,1.4,66.3,66.3,7.4,7.8,1.6,208.1,0.0,0.04803624
2024-04-14,18:45,66.1,6.5,66.1,66.1,9.4,5.5,1,208.7,0.0,0.0432428
2024-04-14,18:50,66.1,4.8,66.1,66.1,8.7,0.8,0.1,223.3,0.0,0.03845248
2024-04-14,18:55,65.4,5.4,65.4,65.4,9.1,1,0.2,260.9,0.0,0.03344859
2024-04-14,19:00,65.3,6.6,65.3,65.3,9.7,1.3,0.1,221.1,0.0,0.02881493
2024-04-14,19:05,63.9,8.4,63.9,63.9,11.1,1.5,0.1,227.7,0.0,0.02016055
2024-04-14,19:10,61.1,8.3,61.1,61.1,12.1,0,0,0,0.0,0.00159846
2024-04-14,19:15,59.6,9.2,59.6,59.6,13.3,1.3,0.1,196.6,0.0,0.00140596
2024-04-14,19:20,59.3,7.5,59.3,59.3,12.5,3.8,0.4,211.1,0.0,0.00157289
2024-04-14,19:25,59.3,7.2,59.3,59.3,12.4,0.8,0.1,188.6,0.0,0.00104013
2024-04-14,19:30,59.3,8.1,59.3,59.3,12.9,5.5,1.1,217.3,0.0,0.0005389699
2024-04-14,19:35,59.1,8.8,59.1,59.1,13.3,1,0.1,203,0.0,-0.000258
2024-04-14,19:40,58.1,8.9,58.1,58.1,13.9,0.8,0.1,246.5,0.0,-0.00105784
2024-04-14,19:45,57,9.4,57.0,57,14.8,2.2,0.1,239.7,0.0,-0.00154991
2024-04-14,19:50,56.3,8.4,56.3,56.3,14.5,0.8,0.1,232.5,0.0,-0.00160181
2024-04-14,19:55,55.9,9,55.9,55.9,15.1,0,0,0,0.0,-0.00155133
2024-04-14,20:00,55.2,8.3,55.2,55.2,15.0,3.7,0.3,245.1,0.0,-0.00165294
2024-04-14,20:05,56.6,6.3,56.6,56.6,13.0,6.9,1.6,240.5,0.0,-0.00112978
2024-04-14,20:10,57.7,5.7,57.7,57.7,12.2,8.3,1.9,235.9,0.0,-0.00118429
2024-04-14,20:15,58,5.3,58.0,58,11.8,7.4,2.4,242,0.0,-0.00125248
2024-04-14,20:20,58,5.6,58.0,58,12.0,7.6,1.4,227.6,0.0,-0.00142295
2024-04-14,20:25,58.2,5.1,58.2,58.2,11.6,8.1,2.9,229.1,0.0,-0.00135002
2024-04-14,20:30,57.8,5.2,57.8,57.8,11.9,6.2,1.2,216.5,0.0,-0.0017063
2024-04-14,20:35,57,5,57.0,57,12.1,2.2,0.3,206.6,0.0,-0.00200901
2024-04-14,20:40,56.4,4.4,56.4,56.4,12.0,4.9,0.4,218.7,0.0,-0.0018232
2024-04-14,20:45,57.1,5,57.1,57.1,12.1,5.1,0.8,232.5,0.0,-0.00158912
2024-04-14,20:50,56.2,6.6,56.2,56.2,13.4,2.4,0.3,244.7,0.0,-0.00159029
2024-04-14,20:55,55.1,6.9,55.1,55.1,14.1,0,0,0,0.0,-0.00216372
2024-04-14,21:00,54.4,6.4,54.4,54.4,14.2,0.8,0,202.5,0.0,-0.00173376
2024-04-14,21:05,53.6,6.6,53.6,53.6,14.7,0,0,0,0.0,-0.00189327
2024-04-14,21:10,52.7,7.4,52.7,52.7,15.8,0,0,0,0.0,-0.00191312
2024-04-14,21:15,51.9,8.4,51.9,51.9,17.0,0,0,0,0.0,-0.00188397
2024-04-14,21:20,50.9,8.5,50.9,50.9,17.7,0,0,0,0.0,-0.00199252
2024-04-14,21:25,50.3,7.2,50.3,50.3,17.1,0,0,0,0.0,-0.00200204
2024-04-14,21:30,50.1,6.4,50.1,50.1,16.6,0,0,0,0.0,-0.00186385
2024-04-14,21:35,50.5,6.2,50.5,50.5,16.2,0,0,0,0.0,-0.00136987
2024-04-14,21:40,49.5,7.9,49.5,49.5,18.2,0,0,0,0.0,-0.00187631
2024-04-14,21:45,48.6,9.3,48.6,48.6,20.0,0,0,0,0.0,-0.001867
2024-04-14,21:50,49,7.6,49.0,49,18.2,0,0,0,0.0,-0.00146216
2024-04-14,21:55,48,8.9,48.0,48,20.1,0,0,0,0.0,-0.00160134
2024-04-14,22:00,49.4,7.8,49.4,49.4,18.2,2.4,0.2,237.1,0.0,-0.00118623
2024-04-14,22:05,46.5,10.9,46.5,46.5,23.2,0,0,0,0.0,-0.00182798
2024-04-14,22:10,43.9,11.8,43.9,43.9,26.7,0,0,0,0.0,-0.00203793
2024-04-14,22:15,43.9,11.7,43.9,43.9,26.6,4.6,1.3,259,0.0,-0.00159272
2024-04-14,22:20,44.5,11.4,44.5,44.5,25.8,6.5,1.6,259.8,0.0,-0.00132062
2024-04-14,22:25,44.7,12.5,44.7,44.7,26.7,9,4.6,275.5,0.0,-0.00127207
2024-04-14,22:30,43.6,12.6,43.6,43.6,28,8.3,4.3,268.4,0.0,-0.0015726
2024-04-14,22:35,43.7,12.2,43.7,43.7,27.4,8,4,255.2,0.0,-0.00141601
2024-04-14,22:40,44.3,12.1,44.3,44.3,26.6,8,4.2,270.7,0.0,-0.00124049
2024-04-14,22:45,43.9,12.7,43.9,43.9,27.8,6.9,2.5,254.9,0.0,-0.00145593
2024-04-14,22:50,42.9,13.4,42.9,42.9,29.8,7.6,3.8,262.5,0.0,-0.00152387
2024-04-14,22:55,42.4,13.1,42.4,42.4,30.1,7.2,3.3,271.3,0.0,-0.00146768
2024-04-14,23:00,41.8,13.6,41.8,41.8,31.3,5.8,1.8,252.9,0.0,-0.00144567
2024-04-14,23:05,41.1,13.5,41.1,41.1,32.1,6,1.5,243.4,0.0,-0.00144067
2024-04-14,23:10,41.8,13.6,41.8,41.8,31.4,7.4,2.4,252.2,0.0,-0.00129409
2024-04-14,23:15,41.1,12.8,41.1,41.1,31.2,6.2,2.6,252.4,0.0,-0.00140432
2024-04-14,23:20,40.2,13.8,40.2,40.2,33.6,8,2.6,210.3,0.0,-0.00137537
2024-04-14,23:25,39.3,14,39.3,39.3,35.2,6.2,2.1,205.3,0.0,-0.00142102
2024-04-14,23:30,39,13.7,39.0,39,35.1,4.6,1.6,232.8,0.0,-0.00135601
2024-04-14,23:35,38.7,13.6,38.7,38.7,35.4,6.2,1.6,236.4,0.0,-0.00122206
2024-04-14,23:40,39.4,13.7,39.4,39.4,34.5,7.1,2.2,254.6,0.0,-0.00114844
2024-04-14,23:45,39.4,13.8,39.4,39.4,34.7,5.1,1.3,252.8,0.0,-0.00121562
2024-04-14,23:50,39.1,14,39.1,39.1,35.5,7.8,3.5,240.3,0.0,-0.00128955
2024-04-14,23:55,38.7,13.6,38.7,38.7,35.3,4.7,0.5,244.8,0.0,-0.00136749
2024-04-15,00:00,39.2,13.8,39.2,39.2,35.1,6.5,2.7,247.9,0.0,-0.00108412
2024-04-15,00:05,38.9,14,38.9,38.9,35.6,7.2,2.9,240.3,0.0,-0.00114462
2024-04-15,00:10,38.7,13.7,38.7,38.7,35.5,7.1,3.8,247.3,0.0,-0.00117762
2024-04-15,00:15,39.1,13.5,39.1,39.1,34.6,6,2.6,243,0.0,-0.00116353
2024-04-15,00:20,38.5,13.7,38.5,38.5,35.8,4.2,1.4,261.1,0.0,-0.00130075
2024-04-15,00:25,38.2,13.5,38.2,38.2,35.8,4.6,0.8,274,0.0,-0.00129572
2024-04-15,00:30,38.1,13.5,38.1,38.1,36.1,1.9,0.5,231.3,0.0,-0.001251
2024-04-15,00:35,38.2,13.5,38.2,38.2,35.9,3.8,0.6,263.4,0.0,-0.00118312
2024-04-15,00:40,38.2,13.3,38.2,38.2,35.6,3,0.3,279.4,0.0,-0.00121851
2024-04-15,00:45,38,13.4,38.0,38,36.1,0,0,0,0.0,-0.00128259
2024-04-15,00:50,37.6,13.8,37.6,37.6,37.1,3.5,0.2,231,0.0,-0.00133017
2024-04-15,00:55,37.7,13.6,37.7,37.7,36.8,5.1,1.4,255.3,0.0,-0.00111327
2024-04-15,01:00,37.5,13,37.5,37.5,36.1,2.2,0.1,231.4,0.0,-0.00131342
2024-04-15,01:05,37.9,12.9,37.9,37.9,35.4,4,1.3,255.6,0.0,-0.00118119
2024-04-15,01:10,38.1,13,38.1,38.1,35.2,3.8,0.8,256.5,0.0,-0.0012173
2024-04-15,01:15,38.7,12.9,38.7,38.7,34.3,4,0.8,266.7,0.0,-0.00113769
2024-04-15,01:20,38.2,13,38.2,38.2,35.1,0,0,0,0.0,-0.00131557
2024-04-15,01:25,37.5,13.1,37.5,37.5,36.2,0,0,0,0.0,-0.00153293
2024-04-15,01:30,37,13.2,37.0,37,37.1,0,0,0,0.0,-0.00124481
2024-04-15,01:35,37.3,13.2,37.3,37.3,36.8,4.2,0.7,266.7,0.0,-0.00123738
2024-04-15,01:40,37.4,13.1,37.4,37.4,36.5,0.8,0.1,269.3,0.0,-0.0012405
2024-04-15,01:45,37.3,13,37.3,37.3,36.4,3.3,0.9,301.5,0.0,-0.0012032
2024-04-15,01:50,37.4,13.3,37.4,37.4,36.7,5.8,0.9,255.2,0.0,-0.00120296
2024-04-15,01:55,36.6,13.2,36.6,36.6,37.7,1.7,0.2,231.4,0.0,-0.00128665
2024-04-15,02:00,36.6,12.9,36.6,36.6,37.3,5.1,1.9,268.1,0.0,-0.00118
2024-04-15,02:05,36.4,13.2,36.4,36.4,38,4.2,0.6,251.6,0.0,-0.00133567
2024-04-15,02:10,36,13.2,36.0,36,38.5,4.7,0.7,244.4,0.0,-0.00126511
2024-04-15,02:15,35.8,13.1,35.8,35.8,38.8,1.7,0.3,257.2,0.0,-0.00124337
2024-04-15,02:20,36,13,36.0,36,38.3,4.9,0.5,251.5,0.0,-0.00118335
2024-04-15,02:25,35.9,12.5,35.9,35.9,37.7,1.9,0.3,257.7,0.0,-0.00128738
2024-04-15,02:30,36.3,12.5,36.3,36.3,37.1,2.8,0.2,226,0.0,-0.00109012
2024-04-15,02:35,35.5,12.6,35.5,35.5,38.3,2.8,0.2,225.5,0.0,-0.00135166
2024-04-15,02:40,35.7,12.3,35.7,35.7,37.5,5.1,1.3,260.2,0.0,-0.00117356
2024-04-15,02:45,36.8,12.1,36.8,36.8,35.7,6,2.1,293.6,0.0,-0.00108365
2024-04-15,02:50,36,12.4,36.0,36,37.4,0,0,0,0.0,-0.00165754
2024-04-15,02:55,35.7,12.6,35.7,35.7,38.0,0,0,0,0.0,-0.00137776
2024-04-15,03:00,34.3,13.4,34.3,34.3,41.7,0,0,0,0.0,-0.00162718
2024-04-15,03:05,33.2,13.1,33.2,33.2,42.9,0,0,0,0.0,-0.00170749
2024-04-15,03:10,32.3,13.1,32.3,32.3,44.5,0,0,0,0.0,-0.00156425
2024-04-15,03:15,32,13.2,32.0,32,45.4,0,0,0,0.0,-0.00128279
2024-04-15,03:20,34.3,11.9,34.3,34.3,39,0,0,0,0.0,-0.0008895099
2024-04-15,03:25,33.3,13.2,33.3,33.3,42.9,0,0,0,0.0,-0.00128953
2024-04-15,03:30,33.5,11.7,33.5,33.5,40.1,0,0,0,0.0,-0.00126897
2024-04-15,03:35,33.6,11.6,33.6,33.6,39.6,0,0,0,0.0,-0.00121228
2024-04-15,03:40,34.7,11.7,34.7,34.7,38.1,0,0,0,0.0,-0.00107864
2024-04-15,03:45,33.9,12.3,33.9,33.9,40.3,0,0,0,0.0,-0.00139929
2024-04-15,03:50,31.7,12.3,31.7,31.7,44.0,0,0,0,0.0,-0.0016214
2024-04-15,03:55,31,13,31.0,31,46.7,0,0,0,0.0,-0.00164794
2024-04-15,04:00,30.1,12.8,30.1,30.1,48.0,0,0,0,0.0,-0.00156734
2024-04-15,04:05,29.2,12.7,29.2,29.2,49.6,0,0,0,0.0,-0.00141459
2024-04-15,04:10,28.7,12.8,28.7,28.7,50.9,0,0,0,0.0,-0.00137656
2024-04-15,04:15,28.7,12.8,28.7,28.7,51.0,0,0,0,0.0,-0.00125437
2024-04-15,04:20,28.8,13,28.8,28.8,51.1,0,0,0,0.0,-0.00123476
2024-04-15,04:25,28.1,13.1,28.1,28.1,53.0,0,0,0,0.0,-0.00136578
2024-04-15,04:30,27.9,13.4,27.9,27.9,53.9,0,0,0,0.0,-0.00134667
2024-04-15,04:35,27.6,12.8,27.6,27.6,53.1,0,0,0,0.0,-0.0011745
2024-04-15,04:40,27,12.6,27.0,27,54.2,0,0,0,0.0,-0.001131
2024-04-15,04:45,26.8,12.6,26.8,26.8,54.5,0,0,0,0.0,-0.00121182
2024-04-15,04:50,27,12.5,27.0,27,54.1,0,0,0,0.0,-0.00124433
2024-04-15,04:55,26.5,12.4,26.5,26.5,54.8,0,0,0,0.0,-0.00118166
2024-04-15,05:00,27.2,12.3,27.2,27.2,53,0,0,0,0.0,-0.00120297
2024-04-15,05:05,27.5,11.9,27.5,27.5,51.4,3.1,0.4,300.4,0.0,-0.0009432799
2024-04-15,05:10,28.1,12.1,28.1,28.1,50.7,6,1.3,235.3,0.0,-0.0009896599
2024-04-15,05:15,26.8,12.1,26.8,26.8,53.3,0,0,0,0.0,-0.00136126
2024-04-15,05:20,27.6,11.3,27.6,27.6,49.9,2.1,0.1,150.5,0.0,-0.00105517
2024-04-15,05:25,27.3,11.8,27.3,27.3,51.5,0,0,0,0.0,-0.00141194
2024-04-15,05:30,27.1,11.5,27.1,27.1,51.4,0,0,0,0.0,-0.00132034
2024-04-15,05:35,27.1,11,27.1,27.1,50.2,0,0,0,0.0,-0.00110706
2024-04-15,05:40,26.5,11.6,26.5,26.5,52.7,3.1,0.4,105.6,0.0,-0.00118071
2024-04-15,05:45,26.1,11.4,26.1,26.1,53.3,2.1,0.1,171,0.0,-0.00124769
2024-04-15,05:50,26.2,11.4,26.2,26.2,53.1,0,0,0,0.0,-0.0012656
2024-04-15,05:55,26.2,12.1,26.2,26.2,54.6,1,0,210.3,0.0,-0.00119315
2024-04-15,06:00,26.3,12,26.3,26.3,54.3,0,0,0,0.0,-0.00121969
2024-04-15,06:05,25.6,12.2,25.6,25.6,56.2,0,0,0,0.0,-0.00133374
2024-04-15,06:10,25,11.6,25.0,25,56.3,0,0,0,0.0,-0.00112641